{"data":{"norad_id":67766,"intl_designator":"2026-030C","name":"KUIPER-00177","alt_names":[],"object_type":"PAYLOAD","status":"ACTIVE","operator":null,"country":"US","launch_date":"2026-02-12","launch_site_code":"FRGUI","launch_vehicle":null,"mission":null,"orbit_class":"UNKNOWN","rcs_meters":null,"size_class":null,"mass_kg":null,"dimensions":null,"purposes":[],"wikipedia_slug":null,"has_3d_model":false,"image_url":null,"decayed_at":null,"tle_current":{"epoch":"2026-09-20T21:56:47.524416Z","epoch_age_seconds":53482,"freshness":"FRESH","line1":"1 67766U 26030C   26263.91443894 -.00014652  00000+0 -19006-2 0  9991","line2":"2 67766  51.9072  69.8459 0003259  60.4697 299.6590 14.79849374 34081","mean_motion":14.79849374,"eccentricity":0.0003259,"inclination_deg":51.9072,"raan_deg":69.8459,"arg_perigee_deg":60.4697,"mean_anomaly_deg":299.659,"bstar":-0.0019006,"rev_number":3408,"period_min":97.307200671898,"perigee_km":627.51574161875,"apogee_km":632.08351471299,"semimajor_km":7007.9366281659,"source":"CELESTRAK","updated_at":"2026-09-21T09:00:16.827348Z"}}}